World > North America > United States > California

La Jolla, California Regional Weather

Lat: 32.85N, Lon: 117.27W
Wx Zone: CAZ043Web Search

Our weather pages are very print friendly and they make great conversation starters.

Feedback


°F Click to change La Jolla hourly weather to Imperial units.Click to change La Jolla hourly weather to Metric units. °C
La Jolla Weather Map
UTC Time: 6/16/2021, 16:56
Your Time:

La Jolla, CA Regional Weather

Expires:202106161700;;361650
ASUS46 KSGX 161611
RWRSGX

SAN DIEGO HOURLY WEATHER ROUNDUP
NATIONAL WEATHER SERVICE SAN DIEGO CA
900 AM PDT WED JUN 16 2021

NOTE: "FAIR" INDICATES FEW OR NO CLOUDS BELOW 12,000 FEET WITH NO 
SIGNIFICANT WEATHER AND/OR OBSTRUCTIONS TO VISIBILITY.


CAZ042-043-060-061-PZZ750-775-161700-

GREATER SAN DIEGO AREA
  
CITY           SKY/WX    TMP DP  RH WIND       PRES   REMARKS
SAN DIEGO AP   CLOUDY    66  61  84 S9        29.90S FOG              
CHULA VISTA      N/A     66  63  90 W2        29.71S                  
BROWN FIELD    PTSUNNY   68  60  75 NW8       29.88S HAZE             
MIRAMAR MCAS   PTSUNNY   69  62  78 SW6       29.89R                  
MONTGOMERY FLD CLOUDY    64  61  90 SW7       29.89R FOG              
GILLESPIE FLD  SUNNY     72  61  68 SW6       29.88R                  
LEMON GROVE      N/A     64  62  94 CALM      29.85R                  

$$

NORTH SAN DIEGO COUNTY
  
CITY           SKY/WX    TMP DP  RH WIND       PRES   REMARKS
CAMP PENDLETON MOSUNNY   70  62  76 SW6       29.88R                  
OCEANSIDE AP   CLOUDY    67  62  84 SW6       29.87S HAZE             
OCEANSIDE HBR    N/A     65  63  94 CALM      29.95R                  
VISTA            N/A     70  64  81 W2        29.85R                  
CARLSBAD       CLOUDY    64  61  90 SW6       29.88R FOG              
LA JOLLA SCRIP   N/A     64  60  86 CALM      29.89R                  
FALLBROOK      FAIR      73  61  64 SW8       29.89S                  
ESCONDIDO        N/A     78  63  60 CALM      29.85R                  
SAN MARCOS       N/A     72  64  77 NW1       29.89R                  
RANCHO BERNARD   N/A     70  63  77 S3        29.85R                  
POWAY            N/A     76  63  65 SW3       29.88R                  

$$

EAST SAN DIEGO COUNTY
  
CITY           SKY/WX    TMP DP  RH WIND       PRES   REMARKS
RAMONA         PTSUNNY   79  55  43 NW9       29.90R                  
LA MESA          N/A     65  60  86 CALM      29.82R                  
DESCANSO N       N/A     86  51  30 CALM      29.80F                  

$$

ORANGE COUNTY AND THE LOS ANGELES BASIN
  
CITY           SKY/WX    TMP DP  RH WIND       PRES   REMARKS
JOHN WAYNE AP  PTSUNNY   72  62  71 S10       29.87R                  
LAGUNA BEACH     N/A     69  64  84 SW1       29.86S                  
LAKE FOREST FR   N/A     71  58  64 NW1       29.74R                  
HUNTINGTON BCH   N/A     68  15  13 S3        29.86S                  
LOS ALAMITOS   MOSUNNY   72  67  83 S10       29.86S                  
FULLERTON      SUNNY     77  59  53 S5        29.84F                  
LONG BEACH     SUNNY     68  62  81 S9        29.86S                  
L.A. AP        PTSUNNY   75  61  61 SE7       29.85S                  
L.A. DOWNTOWN  SUNNY     78  60  53 CALM      29.84F                  

$$

THE INLAND EMPIRE
  
CITY           SKY/WX    TMP DP  RH WIND       PRES   REMARKS
CORONA         MOSUNNY   78  60  53 CALM      29.86F                  
UPLAND AP      FAIR      82  55  39 E5        29.89S                  
CHINO          MOSUNNY   79  59  50 VRB3      29.87F                  
ONTARIO        PTSUNNY   82  58  43 CALM      29.86F                  
SAN BERNARDINO PTSUNNY   82  54  36 CALM      29.88F                  
RIVERSIDE AP   MOSUNNY   77  57  50 CALM      29.86F                  
MORENO VALLEY    N/A     88  60  38 CALM      29.81F                  
MARCH ARB      MOSUNNY   85  57  37 N3        29.88F                  
HORSETHIEF CYN   N/A     80  54  40 NW2       29.80F                  
PERRIS           N/A     83  54  36 CALM      29.87F                  
LAKE ELSINORE    N/A     78  59  53 CALM      29.75S                  
HEMET AP       FAIR      83  53  35 S3        29.90S                  
FRENCH VALLEY  FAIR      79  57  47 CALM      29.90R                  
TEMECULA         N/A     76  62  62 CALM      29.86S                  

$$

SAN BERNARDINO AND RIVERSIDE COUNTY MOUNTAINS
  
CITY           SKY/WX    TMP DP  RH WIND       PRES   REMARKS
BIG BEAR AP    MOSUNNY   77  32  19 CALM      30.36F                  
BIG BEAR LAKE    N/A     73  51  45 NW1       29.85F                  
WRIGHTWOOD       N/A     85  27  12 W2        29.75S                  
ANGELUS OAKS     N/A     84  43  23 CALM      29.67F                  
IDYLLWILD        N/A     84  33  15 N3        29.70S                  

$$

SOUTHERN DESERT INCLUDING THE COACHELLA VALLEY
  
CITY           SKY/WX    TMP DP  RH WIND       PRES   REMARKS
PALM SPRINGS   MOSUNNY   93  58  30 CALM      29.83F                  
THOUSAND PALMS   N/A     92  57  30 S2        29.76F                  
PALM DESERT      N/A     94  61  33 CALM        N/A                   
INDIO            N/A     92  59  33 S3        29.79F                  
THERMAL        MOSUNNY   94  56  27 S3        29.78F                  
BORREGO AP     FAIR      90  55  31 CALM      29.81F                  
OCOTILLO WELLS   N/A     92  61  35 CALM      29.73S                  
CANEBRAKE        N/A     92  48  21 CALM      29.69S                  
BLYTHE         MOSUNNY   97  44  16 S10       29.82R                  
IMPERIAL AP    MOSUNNY   88  61  40 E7        29.78R                  
EL CENTRO NAS  PTSUNNY   89  65  44 CALM      29.80R                  
YUMA AZ        MOSUNNY   96  50  20 VRB3      29.79S                  

$$

UPPER DESERT
  
CITY           SKY/WX    TMP DP  RH WIND       PRES   REMARKS
VICTORVILLE AP SUNNY    N/A N/A N/A CALM      30.03S                  
HESPERIA         N/A     91  37  15 SE2       29.64F                  
APPLE VALLEY     N/A     83  56  39 NE2       29.88F                  
PALMDALE       MOSUNNY   86  39  19 CALM      30.00S                  
LANCASTER      MOSUNNY   86  41  20 S3        29.99S                  
EDWARDS AFB    PTSUNNY   81  42  25 NE3       29.97S                  
GRAY BUTTE AP  FAIR      89  35  14 CALM      30.02R                  
DAGGETT        NOT AVBL                                               
29 PALMS N     MOSUNNY   98  26   7 NW5       29.97S                  
29 PALMS JTNP    N/A     99  31   9 CALM      29.69S                  
NEEDLES        SUNNY    104  27   6 VRB5      29.82R HX  97           

$$

REGIONAL REPORTS
  
CITY           SKY/WX    TMP DP  RH WIND       PRES   REMARKS
SANTA BARBARA  PTSUNNY   77  59  53 NW8       29.79F                  
SANDBERG       MOSUNNY   94  24   8 W8        30.16S                  
LAS VEGAS NV   PTSUNNY   97  31   9 E3        29.94R                  
PHOENIX AZ     MOSUNNY   97  42  15 VRB6      29.89R                  
TIJUANA        PTSUNNY   68  63  83 NW5       29.90S                  
ENSENADA NW      N/A     63  32  31 W15       29.84S                  

$$

OFFSHORE ISLANDS
  
CITY           SKY/WX    TMP DP  RH WIND       PRES   REMARKS
CATALINA ARPT  SUNNY     81  48  31 VRB5      29.92R                  
SAN CLEMENTE I MOSUNNY   66  55  67 SE13      29.87S                  
SAN NICOLAS IS PTSUNNY   64  59  83 NE8       29.86R                  

$$

MARINE AND OFFSHORE BUOY REPORTS
  
STATION/POSITION SKY/WX   TEMP    WIND        PRES    VSBY  SWELL
                          AIR SEA DIR/SP/G                  HT/PER/DIR
                          (F)     (DEG/KT/KT) (MB)    (MI)  (FT/S/D)
TANNER BANKS               59 58  320/  8/ 12 1010.2R         8/300/ 9
S CLEMENTE BASIN           63     170/  8/ 12 1011.2R         7/290/ 9
SAN NICOLAS IS.               59                N/A           5/300/11
SO. S. ROSA ISLA           57                   N/A          10/290/10
W. S. BARBARA CH           57     330/  6/ 12 1011.3F         8/290/10
M. S. BARBARA CH           62     180/  6/ 14 1011.5F         5/270/10
S. MONICA BASIN            64     130/ 10/ 12 1011.2R      
494
   3/260/ 9
S PEDRO CHANNEL               65                N/A           2/280/11
OCEANSIDE OFFSHR              65                N/A           2/190/17
TORREY PINES OTR              65                N/A           2/280/11
SAN DIEGO BAY                 71              1012.1R
IMPERIAL BEACH                62                N/A           2/270/11
POINT LOMA SOUTH              67                N/A           2/280/11

$$

  

SKY/WX - Weather  TMP - Temperature  DP - Dew Point  RH - Relative Humidity
WIND - Wind Direction/Speed PRES - Barometric Pressure VSB - Visibility
WCI - Wind Chill Index E13G22 Wind - East Wind 13 mph/Gusts of 22 mph